Home   Weather   Kuala Lumpur   Past weeks

Flag for Malaysia Past Weather in Kuala Lumpur, Malaysia — Yesterday and Last 2 Weeks

Now
77 °F

Partly cloudy.


Feels Like: 78 °F
Forecast: 75 / 89 °F
Wind: 1 mph from West

Location: Sultan Abdul Aziz Shah-Subang

Current Time: Jan 21, 2017 at 6:33:02 am

Latest Report: Jan 21, 2017 at 5:00 am


Visibility: 2 mi

Pressure: 29.86 "Hg

Humidity: 94%

Dew Point: 75 °F

Location of Kuala LumpurLocation

Past Weather in Kuala Lumpur — Graph

°F

Kuala Lumpur Temperature Yesterday

Maximum temperature yesterday: 88 °F (at 1:00 pm)
Minimum temperature yesterday: 75 °F (at 4:00 am)
Average temperature yesterday: 79 °F

High & Low Weather Summary for the Past Weeks

 TemperatureHumidityPressure
High95 °F (Jan 9, 4:00 pm)100% (Jan 16, 7:00 am)29.92 "Hg (Jan 16, 7:00 am)
Low75 °F (Jan 14, 8:00 am)44% (Jan 9, 5:00 pm)29.62 "Hg (Jan 7, 4:00 pm)
Average83 °F78%29.79 "Hg
* Reported Jan 6 5:00 am — Jan 21 5:00 am, Kuala Lumpur, Weather by CustomWeather, © 2017

Note: Actual official high and low records may vary slightly from our data, if they occured in-between our weather recording intervals... More about our weather records

Advertising

Kuala Lumpur Weather History for the Previous 24 Hours

Scroll right to see more
 ConditionsComfort  
Time TempWeatherWind HumidityBarometerVisibility
5:00 am
Sat, Jan 21
77 °FPartly cloudy.1 mph94%29.86 "Hg2 mi
4:00 am77 °FPartly cloudy.1 mph100%29.86 "Hg4 mi
3:00 am79 °FPartly cloudy.No wind94%29.86 "Hg4 mi
2:00 am79 °FPartly cloudy.No wind94%29.86 "Hg4 mi
1:00 am79 °FPartly cloudy.1 mph89%29.89 "Hg4 mi
12:00 am77 °FPartly cloudy.No wind94%29.89 "Hg4 mi
11:00 pm
Fri, Jan 20
77 °FLight rain. Mostly cloudy.1 mph94%29.89 "Hg2 mi
10:00 pm77 °FLight rain. Mostly cloudy.1 mph94%29.89 "Hg2 mi
9:00 pm77 °FPartly cloudy.2 mph94%29.83 "Hg4 mi
8:00 pm77 °FBroken clouds.1 mph94%29.80 "Hg4 mi
7:00 pm77 °FLight rain. Broken clouds.3 mph89%29.80 "Hg6 mi
6:00 pm75 °FThunderstorms. Broken clouds.6 mph94%29.77 "Hg4 mi
5:00 pm86 °FBroken clouds.7 mph75%29.77 "HgN/A
4:00 pm86 °FBroken clouds.6 mph70%29.74 "HgN/A
3:00 pm88 °FThunderstorms. Broken clouds.6 mph66%29.80 "HgN/A
2:00 pm86 °FBroken clouds.8 mph70%29.83 "HgN/A
1:00 pm88 °FBroken clouds.8 mph66%29.86 "HgN/A
12:00 pm86 °FBroken clouds.8 mph70%29.89 "HgN/A
11:00 am84 °FBroken clouds.5 mph70%29.89 "HgN/A
10:00 am82 °FBroken clouds.1 mph79%29.89 "HgN/A
9:00 am77 °FBroken clouds.2 mph94%29.89 "Hg4 mi
8:00 am75 °FPartly cloudy.1 mph94%29.86 "Hg2 mi
7:00 am75 °FPassing clouds.1 mph94%29.83 "Hg5 mi
6:00 am75 °FPartly cloudy.2 mph94%29.83 "Hg6 mi
Weather by CustomWeather, © 2017

See weather overviewHow to use our weather pages